NEUDOSE (56315 NORAD) Tracking and Keplerian Element Data

This shows tracking and keplerian element data for the satellite.

Feedback or suggestion? Click here.




ElementValue
Catalog56315
NameNEUDOSE
Epoch Orbit1932
Epoch Day238.47111022
Epoch Year2023
RAAN334.4647
Inclination51.6358
Eccentricity0.0008778
Argument of Perigee336.2012
Mean Anonmoly23.8575
Mean Motion15.63075275
Decay Rate0.00072439
L11 56315U 98067VG 23238.47111022 .00072439 00000+0 77771-3 0 9992
L22 56315 51.6358 334.4647 0008778 336.2012 23.8575 15.63075275 19324



Live tracking and technical data element details for NEUDOSE (NORAD 56315). NEUDOSE can be tracked NOW for your location showing map with azimuth and elevation plus other details from your city location.







IsCatalogInMostPopularTable: catalog: 56315, numindb: 19
Update: records affected: 1



GetName: 56315 NEUDOSE

Hit Count: updated at: Thu, 28 Sep 2023 04:02:56 GMT